RH
58 38 50 56 40 60 44 20 22 21 11 7 6 6 6 7 6 9 14 17 15 16 18 19 20 20 19 21 24 23 21 18 21 22 23 23 21 19 19 19 18 17 15 14
69 57 47 70 56 42 30 35 32 24 11 8 6 6 6 7 8 8 13 20 22 20 20 24 28 30 31 33 30 30 29 31 31 29 28 27 26 24 26 25 20 18 17 17
67 72 52 62 57 43 44 31 50 21 15 10 7 7 6 7 8 9 14 19 23 24 25 23 26 32 34 36 35 35 38 35 37 36 32 32 29 29 29 28 24 21 20 19
72 57 54 74 54 54 46 51 49 29 21 10 8 7 6 6 8 9 11 21 25 27 28 26 27 27 32 35 37 40 39 40 38 37 38 34 33 35 34 33 29 28 28 23
80 53 74 72 86 62 64 80 60 23 20 9 8 7 7 6 8 8 10 16 27 31 34 32 30 26 25 27 30 34 37 37 38 36 35 37 39 40 50 61 55 42 59 47
80 54 60 86 99 93 70 45 58 23 20 11 8 7 8 7 7 9 9 12 24 33 40 42 43 36 33 32 33 34 34 33 35 35 31 32 42 40 51 63 68 64 70 81
59 50 61 66 83 88 70 56 57 25 38 11 8 7 7 7 7 8 9 10 16 27 39 43 54 52 48 44 35 33 33 34 34 34 33 33 28 36 42 48 65 75 86 86
45 40 44 56 63 58 68 61 59 39 39 11 7 7 7 7 7 8 9 10 12 16 34 46 42 60 69 68 70 64 55 46 43 44 36 36 36 37 39 46 49 57 78 88
51 44 39 40 50 68 87 63 57 53 31 10 7 7 7 7 7 8 9 10 11 14 28 44 49 54 69 80 82 80 77 72 68 58 54 54 42 41 41 41 52 62 64 66
42 36 36 33 44 62 100 63 60 31 33 8 7 6 6 7 7 8 8 10 11 13 20 38 46 45 53 60 67 78 84 78 78 77 80 73 68 55 52 54 56 61 67 72
27 32 27 41 54 80 96 82 40 21 8 7 7 6 6 8 7 7 9 9 11 13 15 23 46 45 50 57 61 65 66 70 77 78 76 80 74 68 64 62 62 72 82 83
29 25 28 33 51 58 77 72 36 21 6 5 6 6 7 7 7 8 9 9 11 12 14 20 31 48 55 64 62 66 68 69 73 76 76 76 85 82 83 83 79 82 87 89
33 22 38 35 47 50 45 38 31 10 6 5 6 6 6 7 8 7 8 9 11 13 14 18 27 46 53 65 75 78 83 82 77 76 69 75 84 92 96 96 93 98 100 100
35 26 30 28 62 73 33 24 10 5 6 5 5 5 6 7 8 7 8 9 10 10 12 16 23 29 47 60 72 92 89 93 96 84 80 80 83 78 75 84 92 92 96 96
24 21 25 32 45 38 21 13 4 4 6 5 5 6 6 8 9 8 9 9 9 11 13 15 18 26 40 50 68 87 93 99 98 100 96 93 88 82 88 86 87 89 93 96
26 33 52 27 28 20 17 8 4 4 5 5 4 6 6 8 9 8 8 9 9 11 12 14 16 19 30 51 63 71 82 96 100 100 95 100 97 100 96 92 87 80 81 87
22 31 38 34 27 10 6 6 5 5 5 5 5 6 7 9 10 9 8 9 9 10 12 14 16 17 25 35 63 68 65 78 88 100 93 94 98 94 100 100 100 98 92 93
39 27 46 54 46 19 5 5 5 5 5 6 6 6 7 10 10 8 9 8 9 11 13 14 15 16 22 33 34 42 86 83 73 82 91 92 96 92 93 94 97 99 100 100
26 37 39 57 34 10 5 5 5 6 6 6 7 8 8 11 11 9 9 9 9 11 13 14 14 17 24 28 24 22 44 82 91 81 75 83 82 86 90 83 80 92 100 87
29 38 33 35 8 5 5 5 5 6 6 6 8 8 10 11 10 9 8 8 10 11 12 12 16 19 18 19 20 20 26 54 83 87 91 80 76 76 80 67 63 77 74 79
21 26 23 21 5 6 6 5 5 7 6 7 9 9 11 11 10 9 8 10 10 11 11 13 17 16 13 19 21 22 23 29 40 63 77 85 79 74 73 57 55 56 67 79
21 11 12 16 8 7 6 5 6 7 7 8 9 9 11 11 10 9 9 9 12 12 13 14 14 14 16 18 21 22 24 27 32 34 56 74 82 82 74 57 51 56 68 71
18 18 40 9 8 6 6 6 7 8 8 9 9 10 10 10 10 10 11 10 10 11 12 13 14 16 17 18 19 20 22 24 26 27 33 54 77 81 77 63 54 64 68 69
41 24 11 9 7 5 6 6 8 9 8 10 11 11 10 10 10 11 11 12 12 13 13 12 14 15 17 18 18 17 16 16 18 21 27 40 64 78 78 68 59 65 72 73
30 26 10 8 6 5 6 7 8 9 9 11 12 11 10 10 12 13 13 12 14 14 14 15 16 16 17 18 18 15 16 16 14 13 18 26 55 80 85 77 65 65 73 76
18 9 9 7 4 5 6 8 9 10 11 12 12 11 10 11 12 11 12 13 15 16 16 17 16 18 19 20 19 17 17 18 16 14 14 19 45 75 82 80 72 70 75 80
8 8 8 5 4 5 7 9 11 11 13 13 12 12 13 12 12 10 12 15 17 18 18 17 20 22 21 21 20 21 21 20 20 19 18 19 46 64 75 82 84 78 78 85
Wind_Speed
104 104 109 112 99 103 96 86 94 95 85 76 68 62 59 58 54 46 36 29 26 22 20 14 11 8 9 16 18 24 27 29 33 36 40 41 43 44 45 45 48 53 58 62
105 105 109 111 104 98 91 89 95 93 83 75 68 60 55 51 49 44 36 24 21 19 14 12 9 8 8 12 15 18 18 20 22 26 27 31 34 35 36 38 42 47 52 57
105 111 106 112 109 97 101 87 100 90 83 72 65 59 52 47 44 40 34 25 16 13 12 7 4 4 8 10 10 12 15 17 19 23 25 25 28 30 32 35 38 41 45 51
107 106 108 117 108 97 102 99 97 88 84 68 63 56 51 46 40 36 31 22 14 9 7 4 1 5 9 13 14 16 17 19 21 23 24 26 28 30 32 34 35 36 41 45
106 105 111 111 114 106 110 112 107 84 89 67 57 53 48 44 37 34 29 23 14 6 4 2 1 5 8 12 15 18 20 22 24 26 28 29 29 31 32 32 34 38 38 40
104 108 110 112 111 112 118 104 108 80 90 68 53 48 45 41 37 32 28 22 16 10 4 2 2 5 7 10 14 17 20 22 24 26 27 29 31 33 34 36 37 38 41 43
107 105 108 111 105 113 114 106 107 90 107 75 51 46 42 38 35 31 28 23 18 12 9 5 5 4 7 9 13 15 19 22 24 25 26 29 31 33 34 36 37 40 39 44
105 102 104 110 102 111 112 109 108 95 101 75 52 45 39 37 33 30 26 24 20 16 9 9 9 9 9 9 11 13 15 18 22 24 26 27 29 32 36 37 38 38 39 41
110 109 109 104 100 110 113 107 108 103 90 72 53 46 40 36 32 30 25 24 20 20 14 12 12 13 13 14 14 14 16 17 19 22 24 26 26 29 31 34 35 38 40 42
114 112 110 98 106 102 119 110 112 95 89 65 49 46 38 35 31 29 26 23 22 20 19 16 15 15 14 15 16 17 20 21 21 21 22 22 23 27 29 31 36 36 36 38
113 115 104 98 99 105 113 112 103 85 74 56 46 42 37 34 32 28 26 25 23 22 21 21 19 17 16 16 16 17 18 19 22 24 23 23 21 24 27 29 32 33 34 36
116 108 102 99 96 105 109 111 93 90 69 52 46 40 37 32 32 27 26 26 24 22 22 23 22 21 19 18 17 17 16 17 19 22 26 24 24 23 25 27 29 32 35 37
119 107 110 98 100 99 97 89 85 76 63 49 44 38 36 33 31 28 25 24 24 24 23 24 25 25 23 22 20 20 19 19 19 19 19 22 25 26 27 29 30 31 33 35
123 110 101 99 108 116 99 86 69 57 55 48 40 39 33 33 32 29 24 26 26 26 25 26 27 28 28 27 25 24 25 22 21 20 19 18 20 23 25 28 29 30 31 32
111 107 98 101 105 102 88 88 62 51 47 45 41 37 32 32 34 29 25 27 26 26 26 28 29 30 31 31 31 31 30 28 26 23 22 20 21 19 19 21 23 26 28 29
118 120 125 92 101 96 87 75 59 49 43 41 41 35 33 33 32 30 26 27 26 27 28 29 30 31 31 34 36 35 35 34 31 29 27 25 24 24 23 22 22 22 24 26
115 113 104 109 99 80 76 65 57 46 41 40 39 34 33 34 33 30 28 27 28 26 27 28 30 31 31 36 39 39 38 40 39 36 33 31 31 30 29 30 29 29 29 30
121 104 110 110 99 79 63 59 54 47 41 38 37 35 33 34 32 30 28 27 27 27 27 29 31 31 32 37 41 42 43 42 43 42 39 37 36 33 33 34 35 34 34 34
104 103 104 104 101 68 56 54 52 46 40 37 36 35 34 33 30 29 28 28 27 28 28 30 30 30 32 43 43 39 40 44 46 46 43 42 40 38 35 35 36 35 36 36
114 98 92 105 71 56 51 49 47 43 40 35 32 32 31 32 30 28 28 26 28 29 31 30 29 34 40 40 40 38 36 46 49 49 50 46 44 40 37 35 36 38 39 38
89 90 84 83 63 54 50 47 42 42 38 32 30 30 30 29 28 28 26 27 29 30 31 28 32 38 32 34 38 38 38 39 46 51 50 50 49 43 40 36 37 42 42 40
96 79 76 81 68 56 48 43 40 40 35 32 31 30 28 27 26 27 27 27 29 30 30 31 33 31 31 34 37 38 39 40 43 47 53 49 49 46 42 38 40 46 44 41
97 83 96 69 64 56 45 40 38 38 34 30 30 27 26 25 25 26 26 27 28 28 28 30 29 30 32 33 35 38 40 41 44 45 48 53 49 47 44 41 44 48 46 43
115 93 79 66 59 53 42 38 36 34 34 29 27 26 25 24 23 25 25 26 26 27 28 27 27 28 29 31 32 33 35 37 42 44 45 52 53 49 47 43 47 50 48 45
109 97 73 62 55 48 40 37 35 33 33 28 26 26 25 24 24 25 26 25 26 26 26 25 26 27 27 28 29 29 30 32 36 39 43 51 55 51 50 48 50 52 51 49
90 73 64 56 50 44 39 36 34 32 31 27 25 25 26 25 25 24 25 26 24 24 24 24 25 25 25 25 25 26 27 28 31 35 39 49 54 53 51 50 50 53 53 52
71 64 58 51 45 41 36 34 33 30 29 26 25 26 26 27 25 24 23 21 22 23 23 22 22 23 23 23 23 25 26 27 29 31 34 45 51 52 50 52 50 52 55 56
Wind_Direction
351 353 352 351 351 354 355 349 345 347 348 349 349 352 354 353 355 1 8 17 26 38 51 55 83 127 157 172 194 211 216 223 224 223 220 223 227 229 230 229 227 224 226 226
347 348 350 351 352 354 351 350 349 347 347 347 346 348 351 351 349 355 2 14 25 25 40 61 75 115 147 183 189 196 206 212 215 219 216 220 221 222 221 226 226 222 222 225
346 345 350 348 349 353 358 354 348 345 346 345 344 343 347 349 347 349 353 1 16 37 22 28 79 130 160 183 192 193 198 204 206 210 211 210 214 214 215 217 220 221 219 222
344 347 349 347 346 350 352 355 348 342 343 341 340 339 341 344 344 342 346 348 0 23 45 41 249 196 189 186 189 194 199 203 205 205 207 210 207 211 212 212 217 217 218 220
341 343 343 346 350 350 353 354 348 341 342 339 336 336 334 338 338 338 340 337 340 344 48 36 308 249 221 207 200 201 203 205 210 210 207 207 207 204 208 207 208 210 211 215
337 341 345 347 345 348 348 349 351 342 341 336 334 332 330 331 331 331 329 328 328 317 289 150 178 224 227 218 218 212 214 212 212 214 215 210 211 206 203 206 209 213 208 210
335 337 340 342 341 344 346 349 349 342 346 335 328 328 325 325 324 323 321 322 316 313 276 238 194 198 216 225 224 224 218 220 222 221 222 220 218 213 211 207 207 207 210 215
334 335 338 340 340 345 344 345 347 340 341 333 324 323 321 318 317 314 313 311 308 300 285 255 231 209 208 215 226 232 230 223 222 223 224 222 223 222 218 210 211 208 210 213
331 333 339 338 337 343 342 341 341 338 336 330 320 317 315 312 310 307 305 302 298 295 276 254 239 228 225 223 223 229 231 231 228 223 222 222 222 221 220 218 219 219 218 219
330 333 337 335 339 340 340 338 338 332 334 325 315 310 308 305 303 300 298 294 290 286 276 260 244 231 227 228 226 228 232 232 232 229 225 227 226 221 221 220 221 221 220 219
329 330 332 336 337 340 337 338 336 330 324 321 309 304 302 298 298 294 293 286 285 279 279 265 245 232 223 224 225 225 228 230 230 229 226 227 227 222 219 220 220 218 219 220
327 330 331 332 338 336 337 335 334 332 317 315 303 298 293 292 289 288 278 280 275 274 269 266 255 235 222 220 219 220 223 224 223 225 227 225 225 224 221 220 219 219 218 220
326 328 328 333 332 333 333 332 333 326 315 309 298 291 287 288 282 277 276 276 267 264 259 258 256 245 229 218 215 216 218 223 219 218 221 221 222 220 221 221 222 222 224 227
324 330 328 331 332 333 329 331 323 321 313 303 296 287 287 284 277 273 267 262 261 261 260 252 250 251 241 225 215 211 216 216 221 223 222 216 215 218 219 221 221 220 221 223
326 328 327 331 335 333 328 325 319 320 314 301 290 285 284 279 273 270 259 259 259 256 253 251 246 245 244 238 223 214 213 213 215 220 222 221 221 220 217 219 219 218 216 215
323 328 324 329 333 329 329 324 316 318 313 295 291 287 280 275 271 268 257 257 256 251 250 248 246 243 241 242 235 225 217 214 215 218 221 222 224 226 227 225 221 217 212 210
327 325 323 325 329 326 327 319 315 314 307 294 289 284 276 273 269 265 256 252 254 253 252 249 247 244 238 240 239 237 232 219 220 222 223 224 227 228 229 231 232 230 228 223
319 325 327 329 327 326 320 318 313 310 302 293 286 281 275 271 269 266 260 254 254 251 247 247 246 244 236 237 241 237 233 234 227 225 226 228 229 232 237 236 234 233 232 230
323 320 325 325 321 317 316 315 309 305 298 292 286 281 276 272 269 261 254 252 250 249 248 245 246 244 237 236 240 243 234 235 234 232 232 232 232 234 240 240 235 229 226 219
320 320 320 322 312 316 316 310 307 303 294 292 285 278 274 271 268 262 254 253 250 249 248 247 244 241 241 242 245 248 240 231 235 234 235 235 237 236 239 239 231 222 215 214
319 325 325 324 314 318 315 308 306 297 292 290 281 275 273 271 264 259 255 248 252 251 252 249 244 246 250 248 248 245 243 236 234 237 238 235 237 238 240 236 229 217 211 215
319 322 321 320 315 315 311 306 302 291 289 284 277 276 274 266 260 255 252 248 249 250 250 248 248 253 250 248 247 247 243 240 236 235 238 237 234 236 238 235 224 215 216 218
318 317 326 313 312 309 306 299 293 288 285 282 280 279 273 264 258 253 252 252 249 249 249 247 247 247 250 250 249 246 244 242 242 237 234 236 234 233 236 234 223 217 220 223
319 321 313 310 307 304 298 293 288 284 281 278 277 275 269 262 254 251 248 251 252 250 250 250 249 249 249 248 247 248 246 244 238 236 232 230 233 231 233 233 226 222 224 225
316 311 306 305 302 297 293 289 283 280 277 275 272 269 265 258 252 248 250 250 249 251 253 253 253 252 252 251 249 249 247 244 240 235 227 225 228 229 229 231 229 226 226 230
306 303 302 299 295 291 288 284 279 276 273 273 273 266 261 251 247 247 247 248 250 252 253 252 251 251 253 251 250 250 247 242 240 235 230 224 225 227 228 231 232 231 231 232
300 299 297 293 289 286 282 279 275 271 267 270 269 263 255 255 252 253 254 257 253 252 254 250 253 255 256 251 248 248 249 245 239 236 231 225 225 229 231 233 235 235 236 237